This is the latest recevied weather packets stored in our database for station/object KJ5EHN. If no packets are shown the sender has not sent any weather packets the latest 10 day(s).
| Time | Temp. | Humidity | Pressure | Rain* | Wind** | Luminosity | Snow |
|---|---|---|---|---|---|---|---|
| 1777840202 | 28.89° C | 34% | 1017.2 hPa | 0 mm | - | - | - |
| 1777839900 | 28.33° C | 35% | 1017.4 hPa | 0 mm | - | - | - |
| 1777839598 | 27.78° C | 32% | 1017.5 hPa | 0 mm | - | - | - |
| 1777839296 | 27.78° C | 35% | 1017.8 hPa | 0 mm | - | - | - |
| 1777838993 | 27.78° C | 35% | 1017.6 hPa | 0 mm | - | - | - |
| 1777838689 | 28.33° C | 37% | 1017.8 hPa | 0 mm | - | - | - |
| 1777838386 | 27.78° C | 37% | 1018 hPa | 0 mm | - | - | - |
| 1777838083 | 27.78° C | 36% | 1017.9 hPa | 0 mm | - | - | - |
| 1777837779 | 27.78° C | 35% | 1018 hPa | 0 mm | - | - | - |
| 1777837477 | 27.78° C | 38% | 1018 hPa | 0 mm | - | - | - |
| 1777837172 | 27.78° C | 39% | 1018.3 hPa | 0 mm | - | - | - |
| 1777836868 | 27.22° C | 38% | 1018.3 hPa | 0 mm | - | - | - |
| 1777836563 | 28.33° C | 40% | 1018 hPa | 0 mm | - | - | - |
| 1777836260 | 27.78° C | 40% | 1018.3 hPa | 0 mm | - | - | - |
| 1777835956 | 26.67° C | 39% | 1018.6 hPa | 0 mm | - | - | - |
| 1777835653 | 26.11° C | 40% | 1018.5 hPa | 0 mm | - | - | - |
| 1777835349 | 27.78° C | 39% | 1018.4 hPa | 0 mm | - | - | - |
| 1777835047 | 27.22° C | 40% | 1018.4 hPa | 0 mm | - | - | - |
| 1777834743 | 28.33° C | 37% | 1018.5 hPa | 0 mm | - | - | - |
| 1777834440 | 27.78° C | 41% | 1018.5 hPa | 0 mm | - | - | - |
| 1777834139 | 28.33° C | 39% | 1018.8 hPa | 0 mm | - | - | - |
| 1777833836 | 27.78° C | 37% | 1018.8 hPa | 0 mm | - | - | - |
| 1777833532 | 28.33° C | 39% | 1018.8 hPa | 0 mm | - | - | - |
| 1777833229 | 27.22° C | 42% | 1018.9 hPa | 0 mm | - | - | - |
| 1777832926 | 27.22° C | 41% | 1018.9 hPa | 0 mm | - | - | - |
* Rain latest hour (hover to see other rain measurements)
** Current wind speed in m/s (hover to see current wind gust speed)